Location: Haulchin
(50.3172°N, 3.4360°E)
Time: 15:00:52
(UTC+00:00)

Cosmos 2181 Rocket - Pass Details

Date: 23 May 2024
Orbit: 951 x 1014 km, 82.9° (Epoch: 16 June)

Event Time Altitude Azimuth Distance (km) Brightness Sun altitude
Rises 01:47:58 0° 351° (N) 3,748 7.9 -13.9°
Reaches altitude 10° 01:50:34 10° 355° (N) 2,787 7.2 -13.6°
Maximum altitude 01:56:56 65° 77° (ENE) 1,086 4.4 -13.1°
Drops below altitude 10° 02:03:09 10° 159° (SSE) 2,726 6.0 -12.6°
Sets 02:05:39 0° 162° (SSE) 3,660 6.6 -12.4°
